Simultaneous Nadir Overpasses (SNOs) Predictions

Prediction of SNOs between GOES-14 and NPP Satellite Orbit:

Table of predicted SNOs for the next 14.0 days since TLE Epoch: 2/25/2023
Index Date Time (GOES-14) GOES-14 Lat,Lon NPP Lat,Lon Distance(km) Time Diff (sec)
1 02/25/2023 20:41:24 -0.06,-108.05 -0.26,-108.90 96.13 80
2 02/26/2023 20:25:20 -0.06,-108.04 0.79,-104.37 419.49 80
3 02/28/2023 08:47:06 0.07,-107.96 0.44,-109.62 188.43 80
4 03/01/2023 08:25:41 0.06,-107.95 -0.55,-105.08 326.58 80
5 03/02/2023 20:47:36 -0.08,-107.98 -0.64,-110.37 273.05 80
6 03/03/2023 20:31:32 -0.08,-107.97 0.41,-105.84 242.61 80
7 03/05/2023 08:53:18 0.09,-107.90 0.81,-111.09 364.17 80
8 03/06/2023 08:31:52 0.08,-107.88 -0.19,-106.55 150.99 80
9 03/07/2023 20:53:48 -0.09,-107.91 -0.99,-111.85 449.26 80
10 03/08/2023 20:37:42 -0.09,-107.90 0.02,-107.31 66.64 80
